ARG0718 SABE-SAAC

Flight info

Callsign ARG0718
Flight time 0h 41m
Altitude FL270
Route LAND4B LANDA UN785 PADAS DIA
Aircraft F28

Departure

Time 2026-05-04 23:29
Airport Aeroparque Jorge Newbery (SABE)

Arrival

Time 2026-05-05 00:10
Airport Comodoro Pierrestegui Airport (SAAC)
Time Latitude Longitude Altitude Speed Heading
2026-05-04 23:05 -34.55793 -58.41492 23 ft 0 kts 207°
2026-05-04 23:20 -34.55792 -58.41491 23 ft 1 kts 207°
2026-05-04 23:21 -34.55781 -58.41484 -3 ft 2 kts 207°
2026-05-04 23:21 -34.55769 -58.41477 36 ft 2 kts 207°
2026-05-04 23:21 -34.55759 -58.41468 25 ft 2 kts 236°
2026-05-04 23:21 -34.55756 -58.41453 23 ft 2 kts 278°
2026-05-04 23:22 -34.55757 -58.41449 26 ft 0 kts 289°
2026-05-04 23:24 -34.55749 -58.41462 23 ft 3 kts 307°
2026-05-04 23:24 -34.55734 -58.41484 23 ft 5 kts 306°
2026-05-04 23:24 -34.55725 -58.41520 23 ft 2 kts 270°
2026-05-04 23:25 -34.55734 -58.41552 24 ft 5 kts 233°
2026-05-04 23:25 -34.55752 -58.41573 23 ft 2 kts 213°
2026-05-04 23:25 -34.55780 -58.41614 25 ft 7 kts 264°
2026-05-04 23:25 -34.55761 -58.41692 25 ft 11 kts 296°
2026-05-04 23:26 -34.55717 -58.41790 23 ft 16 kts 304°
2026-05-04 23:26 -34.55652 -58.41906 23 ft 16 kts 304°
2026-05-04 23:26 -34.55591 -58.42015 23 ft 15 kts 304°
2026-05-04 23:26 -34.55528 -58.42120 25 ft 15 kts 306°
2026-05-04 23:27 -34.55464 -58.42220 24 ft 15 kts 308°
2026-05-04 23:27 -34.55402 -58.42319 23 ft 14 kts 305°
2026-05-04 23:27 -34.55367 -58.42401 23 ft 9 kts 282°
2026-05-04 23:27 -34.55364 -58.42473 23 ft 8 kts 252°
2026-05-04 23:28 -34.55394 -58.42501 23 ft 5 kts 172°
2026-05-04 23:28 -34.55484 -58.42368 27 ft 49 kts 124°
2026-05-04 23:28 -34.55819 -58.41765 21 ft 123 kts 124°
2026-05-04 23:28 -34.56368 -58.40736 287 ft 162 kts 122°
2026-05-04 23:29 -34.56914 -58.39449 881 ft 178 kts 94°
2026-05-04 23:29 -34.56644 -58.38029 1684 ft 179 kts 50°
2026-05-04 23:29 -34.55837 -58.37120 2158 ft 204 kts 32°
2026-05-04 23:29 -34.54547 -58.36098 2502 ft 234 kts 28°
2026-05-04 23:30 -34.53110 -58.35080 2856 ft 245 kts 26°
2026-05-04 23:30 -34.51588 -58.34060 3261 ft 255 kts 25°
2026-05-04 23:30 -34.49918 -58.33322 3657 ft 261 kts
2026-05-04 23:30 -34.48096 -58.33542 4083 ft 270 kts 344°
2026-05-04 23:31 -34.46262 -58.34218 4556 ft 283 kts 338°
2026-05-04 23:31 -34.44954 -58.34836 4892 ft 293 kts 335°
2026-05-04 23:31 -34.42483 -58.36224 5495 ft 312 kts 332°
2026-05-04 23:31 -34.40517 -58.37451 5983 ft 325 kts 330°
2026-05-04 23:32 -34.38490 -58.38764 6471 ft 337 kts 330°
2026-05-04 23:32 -34.36404 -58.40136 6914 ft 340 kts 329°
2026-05-04 23:32 -34.34421 -58.41457 7346 ft 327 kts 328°
2026-05-04 23:32 -34.32498 -58.42813 7814 ft 316 kts 327°
2026-05-04 23:33 -34.30609 -58.44098 8261 ft 308 kts 328°
2026-05-04 23:33 -34.28752 -58.45321 8721 ft 301 kts 328°
2026-05-04 23:33 -34.26933 -58.46490 9188 ft 294 kts 328°
2026-05-04 23:33 -34.25144 -58.47620 9669 ft 288 kts 328°
2026-05-04 23:34 -34.23339 -58.48742 10119 ft 297 kts 328°
2026-05-04 23:34 -34.21479 -58.49893 10570 ft 305 kts 328°
2026-05-04 23:34 -34.19567 -58.51076 11032 ft 313 kts 328°
2026-05-04 23:34 -34.17721 -58.52217 11463 ft 320 kts 328°
2026-05-04 23:35 -34.15721 -58.53453 11948 ft 327 kts 328°
2026-05-04 23:35 -34.13677 -58.54708 12433 ft 333 kts 329°
2026-05-04 23:35 -34.11593 -58.55984 12927 ft 339 kts 328°
2026-05-04 23:35 -34.09470 -58.57280 13429 ft 345 kts 329°
2026-05-04 23:36 -34.07158 -58.58162 13896 ft 359 kts 349°
2026-05-04 23:36 -34.04640 -58.58204 14353 ft 367 kts 357°
2026-05-04 23:36 -34.02080 -58.58060 14800 ft 371 kts 359°
2026-05-04 23:36 -33.99495 -58.57865 15264 ft 374 kts 359°
2026-05-04 23:37 -33.96895 -58.57647 15736 ft 377 kts 359°
2026-05-04 23:37 -33.94280 -58.57517 16190 ft 376 kts 353°
2026-05-04 23:37 -33.91655 -58.57605 16664 ft 378 kts 353°
2026-05-04 23:37 -33.89027 -58.57701 17147 ft 379 kts 352°
2026-05-04 23:38 -33.86391 -58.57817 17631 ft 380 kts 352°
2026-05-04 23:38 -33.83749 -58.57932 18133 ft 381 kts 352°
2026-05-04 23:38 -33.81103 -58.58048 18564 ft 381 kts 352°
2026-05-04 23:38 -33.78461 -58.58162 18998 ft 381 kts 352°
2026-05-04 23:39 -33.75819 -58.58278 19441 ft 381 kts 352°
2026-05-04 23:39 -33.73173 -58.58388 19882 ft 380 kts 352°
2026-05-04 23:39 -33.70539 -58.58500 20330 ft 379 kts 351°
2026-05-04 23:39 -33.67917 -58.58612 20783 ft 378 kts 351°
2026-05-04 23:40 -33.65300 -58.58722 21239 ft 376 kts 351°
2026-05-04 23:40 -33.62700 -58.58831 21705 ft 374 kts 351°
2026-05-04 23:40 -33.60118 -58.58942 22182 ft 371 kts 351°
2026-05-04 23:40 -33.57551 -58.59049 22661 ft 369 kts 351°
2026-05-04 23:41 -33.55000 -58.59157 23147 ft 365 kts 351°
2026-05-04 23:41 -33.52478 -58.59264 23619 ft 362 kts 350°
2026-05-04 23:41 -33.49979 -58.59368 24033 ft 358 kts 350°
2026-05-04 23:41 -33.47509 -58.59473 24454 ft 354 kts 350°
2026-05-04 23:42 -33.45063 -58.59577 24884 ft 350 kts 350°
2026-05-04 23:42 -33.42649 -58.59676 25312 ft 345 kts 350°
2026-05-04 23:42 -33.40275 -58.59774 25745 ft 340 kts 349°
2026-05-04 23:42 -33.37939 -58.59872 26204 ft 334 kts 349°
2026-05-04 23:43 -33.35647 -58.59969 26645 ft 328 kts 349°
2026-05-04 23:43 -33.33363 -58.60069 26837 ft 331 kts 349°
2026-05-04 23:43 -33.31041 -58.60169 26909 ft 338 kts 350°
2026-05-04 23:43 -33.28663 -58.60267 26923 ft 347 kts 350°
2026-05-04 23:44 -33.26227 -58.60368 26932 ft 356 kts 350°
2026-05-04 23:44 -33.23732 -58.60470 26937 ft 364 kts 350°
2026-05-04 23:44 -33.21174 -58.60580 26932 ft 373 kts 350°
2026-05-04 23:44 -33.18560 -58.60701 26936 ft 381 kts 351°
2026-05-04 23:45 -33.15890 -58.60829 26935 ft 388 kts 350°
2026-05-04 23:45 -33.13168 -58.60970 26928 ft 396 kts 350°
2026-05-04 23:45 -33.10399 -58.61122 26927 ft 402 kts 350°
2026-05-04 23:45 -33.07584 -58.61287 26924 ft 409 kts 350°
2026-05-04 23:46 -33.04731 -58.61460 26919 ft 414 kts 350°
2026-05-04 23:46 -33.01852 -58.61638 26914 ft 415 kts 350°
2026-05-04 23:46 -32.98954 -58.61577 26915 ft 425 kts
2026-05-04 23:46 -32.96108 -58.60487 26914 ft 438 kts 20°
2026-05-04 23:47 -32.93409 -58.58805 26919 ft 441 kts 23°
2026-05-04 23:47 -32.90628 -58.57360 26916 ft 433 kts 11°
2026-05-04 23:47 -32.87775 -58.56183 26915 ft 436 kts 15°
2026-05-04 23:47 -32.84915 -58.55046 26918 ft 434 kts 11°
2026-05-04 23:48 -32.82013 -58.54075 26918 ft 433 kts
2026-05-04 23:48 -32.79095 -58.53250 26920 ft 432 kts
2026-05-04 23:48 -32.76168 -58.52386 26921 ft 436 kts 11°
2026-05-04 23:48 -32.73268 -58.51359 26924 ft 436 kts 10°
2026-05-04 23:49 -32.70363 -58.50318 26924 ft 438 kts 11°
2026-05-04 23:49 -32.67459 -58.49270 26928 ft 438 kts 11°
2026-05-04 23:49 -32.64539 -58.48214 26929 ft 439 kts 11°
2026-05-04 23:49 -32.61619 -58.47159 26928 ft 440 kts 11°
2026-05-04 23:50 -32.58692 -58.46104 26924 ft 441 kts 11°
2026-05-04 23:50 -32.55758 -58.45045 26930 ft 442 kts 11°
2026-05-04 23:50 -32.52817 -58.43986 26930 ft 443 kts 11°
2026-05-04 23:50 -32.49869 -58.42924 26930 ft 444 kts 11°
2026-05-04 23:51 -32.46920 -58.41864 26929 ft 445 kts 11°
2026-05-04 23:51 -32.43959 -58.40800 26932 ft 446 kts 11°
2026-05-04 23:51 -32.41000 -58.39736 26931 ft 446 kts 11°
2026-05-04 23:51 -32.38031 -58.38671 26933 ft 447 kts 11°
2026-05-04 23:52 -32.35071 -58.37608 26931 ft 445 kts 11°
2026-05-04 23:52 -32.32131 -58.36552 26930 ft 436 kts 11°
2026-05-04 23:52 -32.29280 -58.35530 26925 ft 421 kts 11°
2026-05-04 23:52 -32.26542 -58.34549 26918 ft 404 kts 11°
2026-05-04 23:53 -32.23908 -58.33607 26914 ft 387 kts 10°
2026-05-04 23:53 -32.21338 -58.32694 26496 ft 389 kts 10°
2026-05-04 23:53 -32.18734 -58.31764 26050 ft 394 kts 11°
2026-05-04 23:53 -32.16106 -58.30824 25622 ft 397 kts 11°
2026-05-04 23:54 -32.13479 -58.29882 25202 ft 391 kts 11°
2026-05-04 23:54 -32.10897 -58.28960 24787 ft 386 kts 11°
2026-05-04 23:54 -32.08345 -58.28052 24375 ft 382 kts 11°
2026-05-04 23:54 -32.05824 -58.27151 23961 ft 378 kts 11°
2026-05-04 23:55 -32.03323 -58.26261 23565 ft 375 kts 11°
2026-05-04 23:55 -32.00835 -58.25376 23100 ft 373 kts 11°
2026-05-04 23:55 -31.95905 -58.23621 22175 ft 369 kts 11°
2026-05-04 23:56 -31.93458 -58.22751 21709 ft 365 kts 11°
2026-05-04 23:56 -31.91046 -58.21886 21260 ft 362 kts 12°
2026-05-04 23:56 -31.88703 -58.20816 20817 ft 361 kts 17°
2026-05-04 23:56 -31.86415 -58.19639 20380 ft 359 kts 19°
2026-05-04 23:57 -31.84157 -58.18440 19945 ft 355 kts 19°
2026-05-04 23:57 -31.81919 -58.17231 19523 ft 353 kts 20°
2026-05-04 23:57 -31.79708 -58.16015 19107 ft 350 kts 19°
2026-05-04 23:57 -31.77514 -58.14825 18707 ft 347 kts 19°
2026-05-04 23:58 -31.75327 -58.13649 18294 ft 345 kts 19°
2026-05-04 23:58 -31.73156 -58.12490 17805 ft 343 kts 19°
2026-05-04 23:58 -31.70992 -58.11338 17334 ft 341 kts 19°
2026-05-04 23:58 -31.68842 -58.10195 16863 ft 339 kts 19°
2026-05-04 23:59 -31.66696 -58.09058 16400 ft 337 kts 19°
2026-05-04 23:59 -31.64567 -58.07934 15945 ft 335 kts 19°
2026-05-04 23:59 -31.62450 -58.06819 15488 ft 333 kts 19°
2026-05-04 23:59 -31.60347 -58.05715 15036 ft 331 kts 19°
2026-05-05 00:00 -31.58222 -58.04742 14601 ft 326 kts 13°
2026-05-05 00:00 -31.56792 -58.04195 14303 ft 324 kts 12°
2026-05-05 00:00 -31.53936 -58.03177 13714 ft 321 kts 11°
2026-05-05 00:00 -31.51810 -58.02446 13242 ft 318 kts 11°
2026-05-05 00:01 -31.49694 -58.01733 12762 ft 316 kts 11°
2026-05-05 00:01 -31.47586 -58.01033 12294 ft 314 kts 12°
2026-05-05 00:01 -31.45521 -58.00182 11831 ft 315 kts 17°
2026-05-05 00:01 -31.43502 -57.99238 11372 ft 313 kts 18°
2026-05-05 00:02 -31.41490 -57.98270 10922 ft 312 kts 18°
2026-05-05 00:02 -31.39501 -57.97306 10468 ft 310 kts 19°
2026-05-05 00:02 -31.37504 -57.96344 10035 ft 311 kts 19°
2026-05-05 00:02 -31.35516 -57.95392 9586 ft 309 kts 19°
2026-05-05 00:03 -31.33539 -57.94448 9103 ft 306 kts 19°
2026-05-05 00:03 -31.31582 -57.93511 8644 ft 303 kts 19°
2026-05-05 00:03 -31.29639 -57.92582 8182 ft 300 kts 18°
2026-05-05 00:03 -31.27727 -57.91642 7733 ft 298 kts 22°
2026-05-05 00:04 -31.25898 -57.90533 7294 ft 296 kts 25°
2026-05-05 00:04 -31.24116 -57.89365 6853 ft 293 kts 26°
2026-05-05 00:04 -31.22362 -57.88180 6411 ft 290 kts 26°
2026-05-05 00:04 -31.20636 -57.86992 5947 ft 287 kts 26°
2026-05-05 00:05 -31.18899 -57.85918 5476 ft 279 kts 14°
2026-05-05 00:05 -31.17021 -57.85748 5014 ft 269 kts 347°
2026-05-05 00:05 -31.15369 -57.86651 4546 ft 263 kts 319°
2026-05-05 00:05 -31.14283 -57.88338 4100 ft 262 kts 300°
2026-05-05 00:06 -31.13699 -57.90335 3647 ft 265 kts 276°
2026-05-05 00:06 -31.14024 -57.92450 3197 ft 270 kts 248°
2026-05-05 00:06 -31.15187 -57.94153 2749 ft 272 kts 219°
2026-05-05 00:06 -31.16803 -57.95257 2326 ft 270 kts 199°
2026-05-05 00:07 -31.18623 -57.95545 2116 ft 257 kts 182°
2026-05-05 00:07 -31.20254 -57.95607 2058 ft 209 kts 181°
2026-05-05 00:07 -31.21539 -57.95623 1945 ft 158 kts 185°
2026-05-05 00:07 -31.22564 -57.95774 1636 ft 151 kts 187°
2026-05-05 00:08 -31.23654 -57.96048 1409 ft 164 kts 197°
2026-05-05 00:08 -31.24745 -57.96526 1072 ft 170 kts 208°
2026-05-05 00:08 -31.25738 -57.97188 828 ft 156 kts 210°
2026-05-05 00:08 -31.26657 -57.97779 645 ft 149 kts 209°
2026-05-05 00:09 -31.27564 -57.98346 395 ft 147 kts 207°
2026-05-05 00:09 -31.28453 -57.98892 225 ft 142 kts 207°
2026-05-05 00:09 -31.29309 -57.99416 90 ft 130 kts 208°
2026-05-05 00:09 -31.29990 -57.99841 86 ft 91 kts 208°
2026-05-05 00:10 -31.30294 -58.00053 86 ft 12 kts 241°
2026-05-05 00:10 -31.30296 -58.00064 85 ft 2 kts 245°
2026-05-05 00:10 -31.30309 -58.00062 86 ft 5 kts 137°
2026-05-05 00:10 -31.30305 -58.00044 87 ft 2 kts 57°
2026-05-05 00:11 -31.30289 -58.00017 77 ft 5 kts 37°
2026-05-05 00:11 -31.30279 -58.00024 87 ft 2 kts 270°
2026-05-05 00:11 -31.30291 -58.00035 85 ft 5 kts 213°
2026-05-05 00:11 -31.30306 -58.00084 70 ft 7 kts 274°
2026-05-05 00:12 -31.30293 -58.00117 87 ft 0 kts 304°